Time,TemperatureF,DewpointF,PressureIn,WindDirection,WindDirectionDegrees,WindSpeedMPH,WindSpeedGustMPH,Humidity,HourlyPrecipIn,Conditions,Clouds,dailyrainin,SoftwareType,DateUTC
2013-01-23 00:12:00,26.0,25.0,-100.00,West,264,0.0,0.0,96,-99.99,,,-99.99,,2013-01-23 07:12:00,
2013-01-23 00:22:00,26.0,25.0,-100.00,West,264,0.0,0.0,96,-99.99,,,-99.99,,2013-01-23 07:22:00,
2013-01-23 00:30:00,26.0,25.0,-100.00,SW,236,0.0,2.0,95,-99.99,,,-99.99,,2013-01-23 07:30:00,
2013-01-23 01:12:00,26.0,25.0,-100.00,SW,236,0.0,2.0,95,-99.99,,,-99.99,,2013-01-23 08:12:00,
2013-01-23 01:22:00,26.0,25.0,-100.00,SW,236,0.0,2.0,95,-99.99,,,-99.99,,2013-01-23 08:22:00,
2013-01-23 01:30:00,26.0,25.0,-100.00,East,81,0.0,0.0,97,-99.99,,,-99.99,,2013-01-23 08:30:00,
2013-01-23 02:12:00,26.0,25.0,-100.00,East,81,0.0,0.0,97,-99.99,,,-99.99,,2013-01-23 09:12:00,
2013-01-23 02:22:00,26.0,25.0,-100.00,East,81,0.0,0.0,97,-99.99,,,-99.99,,2013-01-23 09:22:00,
2013-01-23 02:30:00,26.0,25.0,-100.00,WNW,294,0.0,2.0,97,-99.99,,,-99.99,,2013-01-23 09:30:00,
2013-01-23 03:12:00,26.0,25.0,-100.00,WNW,294,0.0,2.0,97,-99.99,,,-99.99,,2013-01-23 10:12:00,
2013-01-23 03:22:00,26.0,25.0,-100.00,WNW,294,0.0,2.0,97,-99.99,,,-99.99,,2013-01-23 10:22:00,
2013-01-23 04:30:00,26.0,25.0,-100.00,North,350,0.0,0.0,95,-99.99,,,-99.99,,2013-01-23 11:30:00,
2013-01-23 05:12:00,26.0,25.0,-100.00,North,350,0.0,0.0,95,-99.99,,,-99.99,,2013-01-23 12:12:00,
2013-01-23 05:22:00,26.0,25.0,-100.00,North,350,0.0,0.0,95,-99.99,,,-99.99,,2013-01-23 12:22:00,
2013-01-23 05:30:00,25.0,24.0,-100.00,NNW,340,0.0,0.0,96,-99.99,,,-99.99,,2013-01-23 12:30:00,
2013-01-23 06:12:00,25.0,24.0,-100.00,NNW,340,0.0,0.0,96,-99.99,,,-99.99,,2013-01-23 13:12:00,
2013-01-23 06:23:00,25.0,24.0,-100.00,NNW,340,0.0,0.0,96,-99.99,,,-99.99,,2013-01-23 13:23:00,
2013-01-23 07:30:00,25.0,24.0,-100.00,NNW,347,0.0,0.0,96,-99.99,,,-99.99,,2013-01-23 14:30:00,
2013-01-23 08:12:00,25.0,24.0,-100.00,NNW,347,0.0,0.0,96,-99.99,,,-99.99,,2013-01-23 15:12:00,
2013-01-23 08:22:00,25.0,24.0,-100.00,NNW,347,0.0,0.0,96,-99.99,,,-99.99,,2013-01-23 15:22:00,
2013-01-23 08:30:00,24.0,24.0,-100.00,NNW,333,0.0,0.0,98,-99.99,,,-99.99,,2013-01-23 15:30:00,
2013-01-23 09:03:00,24.0,24.0,-100.00,NNW,333,0.0,0.0,98,-99.99,,,-99.99,,2013-01-23 16:03:00,
2013-01-23 10:30:00,25.0,24.0,-100.00,NE,50,0.0,0.0,96,-99.99,,,-99.99,,2013-01-23 17:30:00,
2013-01-23 11:12:00,25.0,24.0,-100.00,NE,50,0.0,0.0,96,-99.99,,,-99.99,,2013-01-23 18:12:00,
2013-01-23 11:23:00,25.0,24.0,-100.00,NE,50,0.0,0.0,96,-99.99,,,-99.99,,2013-01-23 18:23:00,
2013-01-23 11:30:00,25.0,24.0,-100.00,NE,50,0.0,2.0,96,-99.99,,,-99.99,,2013-01-23 18:30:00,
2013-01-23 12:12:00,25.0,24.0,-100.00,NE,50,0.0,2.0,96,-99.99,,,-99.99,,2013-01-23 19:12:00,
2013-01-23 12:22:00,25.0,24.0,-100.00,NE,50,0.0,2.0,96,-99.99,,,-99.99,,2013-01-23 19:22:00,
2013-01-23 13:12:00,27.0,25.0,-100.00,ESE,107,0.0,2.0,93,-99.99,,,-99.99,,2013-01-23 20:12:00,
2013-01-23 13:30:00,28.0,26.0,-100.00,ENE,58,0.0,2.0,91,-99.99,,,-99.99,,2013-01-23 20:30:00,
2013-01-23 14:12:00,28.0,26.0,-100.00,ENE,58,0.0,2.0,91,-99.99,,,-99.99,,2013-01-23 21:12:00,
2013-01-23 14:22:00,28.0,26.0,-100.00,ENE,58,0.0,2.0,91,-99.99,,,-99.99,,2013-01-23 21:22:00,
2013-01-23 14:30:00,28.0,26.0,-100.00,ESE,109,2.0,2.0,91,-99.99,,,-99.99,,2013-01-23 21:30:00,
2013-01-23 15:12:00,28.0,26.0,-100.00,ESE,109,2.0,2.0,91,-99.99,,,-99.99,,2013-01-23 22:12:00,
2013-01-23 15:22:00,28.0,26.0,-100.00,ESE,109,2.0,2.0,91,-99.99,,,-99.99,,2013-01-23 22:22:00,
2013-01-23 16:30:00,28.0,27.0,-100.00,ESE,109,0.0,2.0,96,-99.99,,,-99.99,,2013-01-23 23:30:00,
2013-01-23 17:12:00,28.0,27.0,-100.00,ESE,109,0.0,2.0,96,-99.99,,,-99.99,,2013-01-24 00:12:00,
2013-01-23 17:22:00,28.0,27.0,-100.00,ESE,109,0.0,2.0,96,-99.99,,,-99.99,,2013-01-24 00:22:00,
2013-01-23 17:30:00,28.0,27.0,-100.00,SSE,166,0.0,0.0,94,-99.99,,,-99.99,,2013-01-24 00:30:00,
2013-01-23 18:12:00,28.0,27.0,-100.00,SSE,166,0.0,0.0,94,-99.99,,,-99.99,,2013-01-24 01:12:00,
2013-01-23 18:22:00,28.0,27.0,-100.00,SSE,166,0.0,0.0,94,-99.99,,,-99.99,,2013-01-24 01:22:00,
2013-01-23 18:30:00,27.0,26.0,-100.00,SE,141,0.0,2.0,96,-99.99,,,-99.99,,2013-01-24 01:30:00,
2013-01-23 19:12:00,27.0,26.0,-100.00,SE,141,0.0,2.0,96,-99.99,,,-99.99,,2013-01-24 02:12:00,
2013-01-23 19:22:00,27.0,26.0,-100.00,SE,141,0.0,2.0,96,-99.99,,,-99.99,,2013-01-24 02:22:00,
2013-01-23 20:12:00,28.0,27.0,-100.00,SSE,164,0.0,2.0,97,-99.99,,,-99.99,,2013-01-24 03:12:00,
2013-01-23 20:30:00,27.0,26.0,-100.00,SE,126,2.0,2.0,94,-99.99,,,-99.99,,2013-01-24 03:30:00,
2013-01-23 21:12:00,27.0,26.0,-100.00,SE,126,2.0,2.0,94,-99.99,,,-99.99,,2013-01-24 04:12:00,
2013-01-23 21:22:00,27.0,26.0,-100.00,SE,126,2.0,2.0,94,-99.99,,,-99.99,,2013-01-24 04:22:00,
2013-01-23 22:30:00,29.0,29.0,-100.00,South,178,2.0,2.0,99,-99.99,,,-99.99,,2013-01-24 05:30:00,
2013-01-23 23:12:00,29.0,29.0,-100.00,South,178,2.0,2.0,99,-99.99,,,-99.99,,2013-01-24 06:12:00,
2013-01-23 23:22:00,29.0,29.0,-100.00,South,178,2.0,2.0,99,-99.99,,,-99.99,,2013-01-24 06:22:00,
2013-01-23 23:30:00,29.0,29.0,-100.00,SSW,205,2.0,2.0,99,-99.99,,,-99.99,,2013-01-24 06:30:00,